PulseSat

PulseSat

GSAT-10 (GAGAN/PRN 128)

Last updated on Dec. 11, 2018, 12:09 a.m. UTC

1 38779U 12051B   18344.54943624 -.00000160  00000-0  00000+0 0  9997
2 38779   0.0504 107.7160 0001281 117.4240 134.8608  1.00271562 22769
UTC
Height (km)
Latitude
Longitude
Inclination
Orbital Period

Next 30 passes for location: Hong Kong

Rise time Rise Azimuth (degrees) Set time Set Azimuth (degrees) Duration Max altitude (degrees)

No matching passes for this satellites

PulseSat

PulseSat is the new satellites software and hardware trackering solution by Pulsely.
Satellite Two Line Element Set source: US Air Force Space Command

Download PulseSat for iOS
© 2017 Pulsely Limited